Theta_e
342 343 346 345 345 345 346 346 344 344 343 342 341 341 342 343 344 344 346 348 351 350 350 347 341 341 329 330 331 329 329 329 330
343 343 343 344 343 343 344 345 344 344 343 343 342 341 341 342 343 344 346 348 351 351 350 344 341 335 325 327 329 330 332 333 333
343 344 343 342 341 342 345 344 344 345 344 344 343 342 342 342 343 343 345 347 351 351 350 341 342 328 326 328 331 333 334 335 335
344 344 344 345 345 345 346 345 344 345 345 344 344 343 342 343 344 343 344 347 351 352 348 339 340 328 328 329 331 332 334 334 333
343 340 340 341 341 343 344 345 345 345 345 345 344 344 342 343 345 345 345 348 352 352 346 339 338 329 329 330 332 332 333 333 328
340 339 339 341 341 342 343 344 344 345 345 345 344 344 343 342 344 346 347 349 352 352 343 340 339 332 332 333 333 332 333 333 331
337 338 338 339 341 345 345 343 343 345 345 345 345 345 343 343 345 345 348 351 352 351 342 341 340 333 333 333 333 332 331 329 329
339 338 338 339 343 345 345 344 343 342 344 345 345 345 344 345 345 347 350 353 352 348 341 341 341 334 334 334 334 332 331 330 331
340 342 339 338 340 345 346 347 346 345 343 344 345 345 345 346 347 349 352 352 350 347 342 342 334 334 336 337 334 330 328 327 327
347 341 338 337 338 342 344 346 346 346 346 344 344 345 347 348 349 352 353 349 347 344 340 336 338 338 338 336 332 322 317 315 315
350 349 342 339 337 338 342 345 346 346 346 346 346 346 348 350 352 353 349 347 342 343 337 338 338 339 338 334 326 314 312 311 313
350 353 347 339 338 343 343 346 346 347 347 348 348 349 349 350 352 350 346 342 339 341 342 341 341 341 335 331 316 313 314 312 309
345 348 349 346 338 339 345 347 348 348 349 349 349 350 350 351 351 348 343 335 340 337 344 343 342 339 333 318 314 314 316 313 313
349 339 338 349 347 348 348 351 352 353 353 354 354 353 350 339 350 347 341 335 337 345 345 343 339 334 320 315 315 318 317 316 317
339 350 337 337 344 351 353 355 355 355 355 354 354 352 339 334 332 343 341 338 342 344 343 339 335 323 325 322 318 319 320 320 320
339 341 342 338 341 349 353 354 356 357 356 355 354 350 340 334 336 340 339 341 333 341 341 338 333 329 328 320 319 320 321 321 322
351 347 337 334 337 345 353 355 355 357 355 355 350 341 333 333 333 342 342 340 341 343 340 336 332 325 318 320 321 322 322 322 321
346 347 340 335 334 340 351 357 356 356 352 347 336 334 333 335 340 343 342 343 341 340 337 335 330 318 319 320 321 322 318 313 310
335 344 339 338 337 335 340 350 352 352 345 339 338 334 333 342 342 344 345 343 340 337 336 327 319 321 322 322 320 315 311 313 314
333 341 343 341 339 341 341 340 348 348 343 340 336 334 344 344 344 345 344 340 337 337 323 320 322 318 314 311 312 312 314 315 315
Wind_Speed
14 25 27 26 28 32 34 31 26 28 29 26 24 23 26 25 23 22 17 16 14 13 11 9 6 4 3 3 4 4 4 3 2
9 16 24 28 28 28 32 34 29 24 29 29 26 23 25 27 25 23 20 17 15 13 11 10 8 5 4 4 3 2 2 1 1
11 13 18 22 27 29 29 33 33 29 26 24 21 23 22 21 23 21 22 19 18 14 11 11 9 6 6 5 3 1 1 1 3
12 15 17 20 22 24 28 31 35 32 32 31 28 26 26 22 21 22 23 21 19 14 12 12 10 9 6 4 3 1 0 2 4
11 13 13 18 22 25 26 28 32 35 35 33 31 29 27 24 20 19 21 23 20 15 15 15 13 11 8 4 3 2 3 4 4
15 19 15 17 20 24 28 30 28 31 31 29 28 29 28 27 22 19 21 24 21 16 17 16 14 12 8 5 4 4 4 4 3
8 16 20 20 22 22 24 30 29 30 30 29 28 28 29 28 25 21 22 25 23 20 19 18 16 14 10 6 4 6 5 5 5
6 12 18 19 19 17 19 23 27 27 29 29 29 29 30 28 23 21 22 25 22 22 21 21 18 15 12 9 7 7 7 6 6
10 8 11 15 17 18 19 21 22 25 29 31 30 29 29 27 23 22 25 25 19 23 23 23 21 17 13 9 8 7 8 9 8
11 12 13 11 10 15 21 22 22 23 26 28 29 28 27 25 23 24 24 16 17 26 25 23 20 15 11 9 7 7 7 7 6
10 11 13 15 14 12 14 17 17 20 21 23 24 25 26 25 24 23 15 14 19 25 26 23 19 15 11 9 8 5 5 5 6
15 15 11 12 10 9 13 14 17 18 19 19 21 23 24 26 27 25 24 18 24 29 24 21 18 12 9 9 7 6 5 5 4
24 25 15 6 8 10 14 18 17 18 18 18 19 22 26 28 29 29 25 8 26 31 25 19 15 12 11 9 7 8 7 6 5
20 23 27 16 4 2 8 12 14 15 14 13 15 14 15 28 8 23 17 17 30 31 26 21 17 14 10 7 8 9 8 6 5
20 16 19 19 18 9 3 6 10 12 14 16 18 22 10 36 35 19 20 20 26 23 25 20 17 16 9 7 11 13 11 10 8
13 14 12 14 12 9 5 1 6 12 13 15 15 15 17 6 9 15 25 25 23 28 23 16 21 18 16 16 13 14 12 13 11
10 3 11 15 14 11 5 1 4 9 8 8 14 11 11 7 16 22 29 24 23 25 19 24 24 20 16 15 14 13 14 13 12
15 8 1 6 12 14 7 3 3 5 7 14 11 9 10 14 14 25 28 25 23 21 21 20 18 15 15 16 14 13 11 10 10
10 6 4 6 8 12 5 1 2 6 7 8 10 13 10 14 18 26 28 24 24 21 16 16 14 11 11 13 13 11 9 9 8
10 6 5 4 2 3 1 4 5 11 8 8 11 8 15 18 23 27 31 28 25 24 22 19 16 13 12 12 11 12 11 8 6
Wind_Direction
208 209 210 213 217 221 225 227 228 226 224 228 233 232 235 240 247 248 248 248 252 269 255 254 237 243 199 151 127 113 100 86 66
197 201 204 210 216 222 222 221 223 220 226 230 235 237 238 242 246 243 243 245 248 259 245 233 219 217 183 158 156 128 90 67 15
193 186 196 208 217 221 221 220 223 224 222 225 229 236 239 240 241 242 240 241 242 249 237 221 211 195 178 175 177 166 32 359 342
201 204 207 212 215 218 223 223 223 225 227 228 229 234 242 243 244 244 238 236 237 236 224 212 206 195 191 189 195 214 293 337 348
222 217 223 224 222 224 227 226 224 226 228 229 229 232 238 241 246 244 233 228 227 226 218 208 204 199 199 201 234 279 310 321 344
256 253 244 220 214 217 220 222 221 213 214 218 223 228 232 236 240 243 229 222 220 219 211 207 207 204 203 208 239 282 292 292 306
285 247 237 244 233 233 220 214 213 212 208 214 219 224 228 233 236 240 227 216 218 211 202 206 207 203 202 218 256 278 281 291 286
257 224 233 240 251 240 213 209 210 212 213 216 221 226 230 232 230 227 216 213 217 202 200 203 207 206 204 216 242 260 275 283 277
283 207 218 230 239 236 215 213 214 218 218 218 220 225 229 227 223 217 208 210 209 204 204 204 201 200 204 220 236 258 267 262 254
304 280 271 248 253 250 234 224 219 224 223 222 224 226 223 221 212 204 207 216 208 207 204 200 198 199 211 228 239 265 267 253 240
326 307 273 260 262 270 229 221 220 227 228 225 224 222 219 213 201 199 194 194 216 218 205 199 199 201 208 220 250 248 236 225 239
2 340 317 268 237 242 228 214 210 215 222 220 216 214 215 212 203 190 189 201 221 225 212 201 194 202 211 230 232 221 203 196 200
11 10 1 316 231 226 223 221 216 212 214 216 216 223 226 217 198 195 200 236 210 209 207 200 202 201 205 218 214 196 187 177 173
351 11 19 23 30 250 243 230 218 212 209 196 201 200 141 2 201 197 214 233 198 200 197 194 194 192 198 211 211 202 202 203 217
342 354 16 24 29 28 351 229 217 209 199 203 209 183 281 317 310 258 255 211 194 198 198 188 189 186 193 213 213 216 218 227 243
345 338 11 22 30 36 14 305 228 220 218 213 216 212 272 151 77 234 236 198 198 197 188 207 192 203 209 199 205 213 226 237 248
347 328 1 23 27 29 9 92 200 225 209 209 201 215 182 266 178 189 191 191 200 201 208 202 208 209 193 194 207 221 237 247 251
352 357 215 15 14 37 9 270 213 193 161 168 192 234 271 211 194 185 185 189 199 199 209 209 218 198 198 204 208 226 224 235 223
336 340 43 72 58 48 11 232 210 180 198 243 263 281 192 182 188 192 189 191 186 195 199 200 184 182 204 213 216 208 196 186 195
299 259 248 258 174 138 36 344 242 226 237 277 273 238 187 186 187 195 185 183 188 188 185 180 182 186 204 193 172 162 173 188 234